This demonstration page uses our WeatherBlox Daily Observations layout. Learn more.

Left ArrowRight Arrow

Hourly Observations for March 21, 2016

Temp ( °F °C ) Dew Point ( °F °C ) Humidity (%) Winds ( mph kmh ) Pressure ( in mb ) Visibility ( mi km ) Precip ( " mm )
12:53 am 00:53 Clear 36 2.2 22 -5.6 57 57 NW 10 17 30.15 1021 10 16 N/A
1:53 am 01:53 Clear 36 2.2 21 -6.1 55 55 WNW 6 9 30.15 1021 10 16 N/A
2:53 am 02:53 Clear 34 1.1 22 -5.6 61 61 W 5 7 30.15 1021 10 16 N/A
3:53 am 03:53 Clear 31 -0.6 23 -5 72 72 W 5 7 30.15 1021 10 16 N/A
4:53 am 04:53 Clear 31 -0.6 23 -5 72 72 W 6 9 30.15 1021 10 16 N/A
5:53 am 05:53 Partly Cloudy 30 -1.1 23 -5 75 75 N N/A 30.17 1022 10 16 N/A
6:53 am 06:53 Mostly Clear 30 -1.1 24 -4.4 79 79 WSW 5 7 30.18 1022 10 16 N/A
7:53 am 07:53 Sunny 30 -1.1 23 -5 75 75 W 3 6 30.20 1023 10 16 N/A
8:53 am 08:53 Sunny 34 1.1 24 -4.4 67 67 WSW 3 6 30.21 1023 10 16 N/A
9:53 am 09:53 Sunny 38 3.3 24 -4.4 57 57 W 6 9 30.22 1023 10 16 N/A
10:53 am 10:53 Sunny 42 5.6 26 -3.3 53 53 NW 5 7 30.23 1024 10 16 N/A
11:53 am 11:53 Sunny 45 7.2 27 -2.8 49 49 W 8 13 30.23 1024 10 16 N/A
12:53 pm 12:53 Mostly Sunny 47 8.3 24 -4.4 41 41 WNW 9 15 30.23 1024 10 16 N/A
1:53 pm 13:53 Mostly Sunny 49 9.4 24 -4.4 38 38 W 10 17 30.20 1023 10 16 N/A
2:53 pm 14:53 Mostly Sunny 51 10.6 25 -3.9 36 36 WNW 15 24 30.18 1022 10 16 N/A
3:53 pm 15:53 Partly Cloudy 52 11.1 26 -3.3 37 37 WNW 12 19 30.16 1021 10 16 N/A
4:53 pm 16:53 Sunny 52 11.1 25 -3.9 35 35 W 13 20 30.16 1021 10 16 N/A
5:53 pm 17:53 Partly Cloudy 52 11.1 25 -3.9 35 35 WSW 14 22 30.15 1021 10 16 N/A
6:53 pm 18:53 Sunny 51 10.6 25 -3.9 36 36 W 12 19 30.15 1021 10 16 N/A
7:53 pm 19:53 Clear 48 8.9 25 -3.9 41 41 WSW 6 9 30.15 1021 10 16 N/A
8:53 pm 20:53 Clear 40 4.4 28 -2.2 63 63 N N/A 30.15 1021 10 16 N/A
9:53 pm 21:53 Clear 37 2.8 27 -2.8 67 67 N N/A 30.16 1022 10 16 N/A
10:53 pm 22:53 Clear 36 2.2 28 -2.2 73 73 N N/A 30.17 1022 10 16 N/A
11:53 pm 23:53 Clear 35 1.7 30 -1.1 82 82 N N/A 30.16 1021 10 16 N/A

Powered by AerisWeather